DW7984 Weather Reports


Display with metric or nautical units.
time (UTC)temp
F
wind
direction
speed
MPH
gust
MPH
rain 1hr
in
rain 24hr
in
rain mn
in
humidity
%
barometer
mb
20200708105903 84 177 4.0 10.0 0.00 0.00 0.00 40 1018.4
20200708105352 84 35 4.0 10.0 0.00 0.00 0.00 40 1018.5
20200708104856 84 73 2.0 10.0 0.00 0.00 0.00 39 1018.6
20200708104356 84 106 3.0 10.0 0.00 0.00 0.00 39 1018.6
20200708103855 84 206 5.0 8.0 0.00 0.00 0.00 38 1018.8
20200708103356 84 142 5.0 9.0 0.00 0.00 0.00 36 1018.8
20200708102852 84 237 5.0 10.0 0.00 0.00 0.00 38 1018.7
20200708102359 84 86 3.0 10.0 0.00 0.00 0.00 39 1018.7
20200708101859 84 224 3.0 10.0 0.00 0.00 0.00 36 1018.8
20200708101346 84 229 5.0 12.0 0.00 0.00 0.00 38 1018.8
20200708100904 83 137 5.0 12.0 0.00 0.00 0.00 37 1018.8
20200708100410 83 139 5.0 11.0 0.00 0.00 0.00 40 1018.7
20200708095904 83 163 4.0 11.0 0.00 0.00 0.00 43 1018.7
20200708095410 83 173 3.0 11.0 0.00 0.00 0.00 43 1018.6
20200708094904 83 237 3.0 9.0 0.00 0.00 0.00 44 1018.6
20200708094354 82 195 2.0 9.0 0.00 0.00 0.00 44 1018.7
20200708093856 83 147 6.0 9.0 0.00 0.00 0.00 44 1018.7
20200708093359 83 240 5.0 11.0 0.00 0.00 0.00 43 1018.6
20200708092855 83 249 6.0 11.0 0.00 0.00 0.00 43 1018.6
20200708092407 82 260 4.0 8.0 0.00 0.00 0.00 45 1018.6
20200708091853 82 88 3.0 10.0 0.00 0.00 0.00 45 1018.5
20200708091345 82 191 6.0 10.0 0.00 0.00 0.00 43 1018.5
20200708090847 83 173 3.0 10.0 0.00 0.00 0.00 42 1018.4
20200708090355 82 180 3.0 11.0 0.00 0.00 0.00 40 1018.4
20200708085845 82 219 6.0 11.0 0.00 0.00 0.00 41 1018.3
20200708085409 82 231 3.0 8.0 0.00 0.00 0.00 40 1018.3
20200708084903 81 218 4.0 9.0 0.00 0.00 0.00 43 1018.3
20200708084411 81 236 4.0 10.0 0.00 0.00 0.00 43 1018.3
20200708083845 81 235 5.0 10.0 0.00 0.00 0.00 39 1018.3
20200708083412 80 134 3.0 6.0 0.00 0.00 0.00 43 1018.3
20200708082900 80 222 2.0 7.0 0.00 0.00 0.00 46 1018.2
20200708082409 79 170 1.0 9.0 0.00 0.00 0.00 46 1018.2
20200708081903 79 110 6.0 9.0 0.00 0.00 0.00 55 1018.2
20200708081412 79 95 2.0 6.0 0.00 0.00 0.00 56 1018.2
20200708080846 79 126 2.0 5.0 0.00 0.00 0.00 59 1018.2
20200708080412 78 100 1.0 3.0 0.00 0.00 0.00 58 1018.2
20200708075849 78 106 2.0 6.0 0.00 0.00 0.00 60 1018.1
20200708075356 77 108 3.0 6.0 0.00 0.00 0.00 61 1018.1
20200708074901 78 106 2.0 4.0 0.00 0.00 0.00 62 1018.1
20200708074411 78 110 2.0 4.0 0.00 0.00 0.00 65 1018.1
20200708073903 78 114 3.0 4.0 0.00 0.00 0.00 63 1018.2
20200708073346 78 155 2.0 3.0 0.00 0.00 0.00 63 1018.1
20200708072846 78 235 1.0 3.0 0.00 0.00 0.00 63 1018.1
20200708072409 78 265 0.0 2.0 0.00 0.00 0.00 64 1018.1
20200708071855 78 264 1.0 2.0 0.00 0.00 0.00 65 1018.2
20200708071353 77 269 1.0 3.0 0.00 0.00 0.00 66 1018.1
20200708070847 76 269 1.0 3.0 0.00 0.00 0.00 68 1018.1
20200708070347 75 272 1.0 3.0 0.00 0.00 0.00 69 1018.1
20200708065849 74 272 2.0 4.0 0.00 0.00 0.00 71 1018.0
20200708065356 74 269 2.0 4.0 0.00 0.00 0.00 71 1018.0
20200708064846 73 286 3.0 4.0 0.00 0.00 0.00 72 1017.9
20200708064411 73 285 2.0 4.0 0.00 0.00 0.00 73 1017.9
20200708063903 73 289 2.0 4.0 0.00 0.00 0.00 74 1017.9
20200708063410 72 292 2.0 3.0 0.00 0.00 0.00 75 1017.9
20200708062903 71 297 1.0 2.0 0.00 0.00 0.00 77 1017.9
20200708062410 70 297 1.0 3.0 0.00 0.00 0.00 79 1017.8
20200708061901 69 297 0.0 3.0 0.00 0.00 0.00 81 1017.7
20200708061349 68 282 1.0 4.0 0.00 0.00 0.00 82 1017.6
20200708060847 68 284 2.0 4.0 0.00 0.00 0.00 83 1017.5
20200708060346 67 287 2.0 4.0 0.00 0.00 0.00 83 1017.5
20200708055858 67 287 2.0 4.0 0.00 0.00 0.00 84 1017.5
20200708055346 66 289 3.0 4.0 0.00 0.00 0.00 84 1017.4
20200708054852 66 289 3.0 4.0 0.00 0.00 0.00 85 1017.4
20200708054351 66 295 3.0 5.0 0.00 0.00 0.00 85 1017.4
20200708053856 65 297 3.0 5.0 0.00 0.00 0.00 86 1017.4
20200708053353 65 278 3.0 4.0 0.00 0.00 0.00 86 1017.4
20200708052846 64 280 2.0 4.0 0.00 0.00 0.00 87 1017.4
20200708052356 64 278 3.0 4.0 0.00 0.00 0.00 87 1017.4
20200708051856 63 293 3.0 5.0 0.00 0.00 0.00 87 1017.3
20200708051400 63 296 3.0 5.0 0.00 0.00 0.00 88 1017.3
20200708050846 63 292 4.0 5.0 0.00 0.00 0.00 88 1017.3
20200708050356 62 303 3.0 5.0 0.00 0.00 0.00 88 1017.3
20200708045849 62 293 2.0 5.0 0.00 0.00 0.00 88 1017.3
20200708045352 62 285 2.0 5.0 0.00 0.00 0.00 89 1017.3
20200708044858 62 281 3.0 5.0 0.00 0.00 0.00 89 1017.3
20200708044410 62 285 3.0 4.0 0.00 0.00 0.00 88 1017.3
20200708043853 62 286 2.0 4.0 0.00 0.00 0.00 88 1017.3
20200708043403 62 284 2.0 4.0 0.00 0.00 0.00 88 1017.2
20200708042858 62 287 2.0 4.0 0.00 0.00 0.00 88 1017.2
20200708042409 62 281 2.0 4.0 0.00 0.00 0.00 88 1017.3
20200708041900 62 281 3.0 6.0 0.00 0.00 0.00 88 1017.3
20200708041348 62 285 4.0 6.0 0.00 0.00 0.00 88 1017.3
20200708040856 62 285 4.0 6.0 0.00 0.00 0.00 88 1017.2
20200708040356 62 280 3.0 5.0 0.00 0.00 0.00 88 1017.2
20200708035853 62 274 3.0 6.0 0.00 0.00 0.00 88 1017.2
20200708035353 62 291 2.0 4.0 0.00 0.00 0.00 88 1017.2
20200708034847 62 283 3.0 4.0 0.00 0.00 0.00 88 1017.2
20200708034357 62 284 2.0 7.0 0.00 0.00 0.00 88 1017.2
20200708033900 62 282 3.0 7.0 0.00 0.00 0.00 89 1017.2
20200708033356 62 276 2.0 4.0 0.00 0.00 0.00 89 1017.2
20200708032853 62 274 2.0 4.0 0.00 0.00 0.00 89 1017.2
20200708032346 62 275 2.0 6.0 0.00 0.00 0.00 89 1017.2
20200708031905 62 274 3.0 6.0 0.00 0.00 0.00 89 1017.2
20200708031347 62 274 2.0 4.0 0.00 0.00 0.00 88 1017.2
20200708030849 62 274 3.0 4.0 0.00 0.00 0.00 88 1017.2
20200708030357 62 274 3.0 4.0 0.00 0.00 0.00 88 1017.2
20200708025850 62 274 2.0 4.0 0.00 0.00 0.00 88 1017.3
20200708025400 62 271 3.0 5.0 0.00 0.00 0.00 88 1017.3
20200708024857 62 283 3.0 5.0 0.00 0.00 0.00 88 1017.3
20200708024408 62 278 3.0 5.0 0.00 0.00 0.00 88 1017.4
20200708023902 62 284 3.0 5.0 0.00 0.00 0.00 88 1017.4
20200708023352 62 285 3.0 5.0 0.00 0.00 0.00 88 1017.5
20200708022858 62 280 3.0 4.0 0.00 0.00 0.00 88 1017.4
20200708022356 62 286 2.0 5.0 0.00 0.00 0.00 89 1017.5
20200708021853 62 291 3.0 5.0 0.00 0.00 0.00 88 1017.4
20200708021355 62 293 3.0 5.0 0.00 0.00 0.00 88 1017.5
20200708020850 62 293 1.0 3.0 0.00 0.00 0.00 88 1017.5
20200708020352 62 294 2.0 3.0 0.00 0.00 0.00 88 1017.6
20200708015858 63 295 2.0 3.0 0.00 0.00 0.00 88 1017.6
20200708015407 63 294 1.0 3.0 0.00 0.00 0.00 88 1017.6
20200708014852 63 295 2.0 4.0 0.00 0.00 0.00 88 1017.6
20200708014401 63 295 2.0 4.0 0.00 0.00 0.00 88 1017.6
20200708013853 63 295 3.0 4.0 0.00 0.00 0.00 88 1017.6
20200708013404 63 294 2.0 4.0 0.00 0.00 0.00 88 1017.7
20200708012859 63 295 2.0 4.0 0.00 0.00 0.00 88 1017.7
20200708012349 63 293 3.0 4.0 0.00 0.00 0.00 88 1017.7
20200708011856 63 293 2.0 4.0 0.00 0.00 0.00 88 1017.8
20200708011402 63 294 3.0 4.0 0.00 0.00 0.00 88 1017.9
20200708010858 63 278 2.0 7.0 0.00 0.00 0.00 88 1018.0
20200708010408 63 283 3.0 7.0 0.00 0.00 0.00 88 1018.0
20200708005856 63 255 3.0 4.0 0.00 0.00 0.00 89 1017.9
20200708005407 63 250 2.0 3.0 0.00 0.00 0.00 89 1018.0
20200708004905 63 251 2.0 3.0 0.00 0.00 0.00 89 1017.9
20200708004348 63 249 2.0 3.0 0.00 0.00 0.00 89 1018.0
20200708003858 63 252 2.0 3.0 0.00 0.00 0.00 89 1018.0
20200708003358 63 251 2.0 3.0 0.00 0.00 0.00 89 1018.1
20200708002853 63 252 2.0 3.0 0.00 0.00 0.00 89 1018.1
20200708002356 63 251 2.0 3.0 0.00 0.00 0.00 88 1018.1
20200708001901 64 250 2.0 3.0 0.00 0.00 0.00 88 1018.2
20200708001411 64 251 2.0 3.0 0.00 0.00 0.00 88 1018.3
20200708000853 64 249 2.0 4.0 0.00 0.00 0.00 87 1018.2
20200708000356 64 250 2.0 4.0 0.00 0.00 0.00 87 1018.2
20200707235850 64 252 3.0 4.0 0.00 0.00 0.00 87 1018.2
20200707235351 64 249 2.0 4.0 0.00 0.00 0.00 87 1018.2
20200707234856 64 251 3.0 4.0 0.00 0.00 0.00 87 1018.2
20200707234347 64 249 2.0 3.0 0.00 0.00 0.00 87 1018.3
20200707233852 64 251 2.0 3.0 0.00 0.00 0.00 87 1018.2
20200707233349 64 252 2.0 4.0 0.00 0.00 0.00 86 1018.2
20200707232847 65 244 3.0 4.0 0.00 0.00 0.00 86 1018.3
20200707232349 65 241 3.0 4.0 0.00 0.00 0.00 86 1018.3
20200707231846 65 238 2.0 3.0 0.00 0.00 0.00 85 1018.3
20200707231358 65 241 2.0 4.0 0.00 0.00 0.00 85 1018.3
20200707230902 65 240 3.0 4.0 0.00 0.00 0.00 85 1018.3
20200707230347 65 241 2.0 4.0 0.00 0.00 0.00 84 1018.2
20200707225859 65 239 3.0 4.0 0.00 0.00 0.00 84 1018.3
20200707225409 65 237 3.0 4.0 0.00 0.00 0.00 84 1018.2
20200707224858 65 207 3.0 3.0 0.00 0.00 0.00 84 1018.3
20200707224358 65 206 2.0 3.0 0.00 0.00 0.00 84 1018.2
20200707223901 65 204 2.0 3.0 0.00 0.00 0.00 83 1018.2
20200707223411 65 204 2.0 3.0 0.00 0.00 0.00 83 1018.2
20200707222902 66 206 2.0 3.0 0.00 0.00 0.00 82 1018.2
20200707222409 66 206 2.0 3.0 0.00 0.00 0.00 82 1018.1
20200707221857 66 205 2.0 4.0 0.00 0.00 0.00 81 1018.1
20200707221407 66 204 2.0 4.0 0.00 0.00 0.00 81 1018.1
20200707220904 66 206 2.0 3.0 0.00 0.00 0.00 81 1018.1
20200707220354 67 204 1.0 2.0 0.00 0.00 0.00 80 1018.0
20200707215900 67 204 2.0 3.0 0.00 0.00 0.00 80 1018.0
20200707215353 67 205 2.0 3.0 0.00 0.00 0.00 80 1018.0
20200707214852 67 206 2.0 2.0 0.00 0.00 0.00 80 1018.1
20200707214355 67 206 2.0 2.0 0.00 0.00 0.00 80 1018.0
20200707213859 67 206 1.0 2.0 0.00 0.00 0.00 80 1018.0
20200707213410 67 205 0.0 3.0 0.00 0.00 0.00 80 1018.0
20200707212847 67 205 1.0 3.0 0.00 0.00 0.00 79 1018.0
20200707212357 68 183 2.0 3.0 0.00 0.00 0.00 79 1017.9
20200707211847 68 182 1.0 3.0 0.00 0.00 0.00 79 1017.8
20200707211347 68 181 1.0 3.0 0.00 0.00 0.00 78 1017.8
20200707210852 68 174 2.0 3.0 0.00 0.00 0.00 78 1017.7
20200707210404 68 174 1.0 3.0 0.00 0.00 0.00 78 1017.7
20200707205901 69 173 2.0 3.0 0.00 0.00 0.00 77 1017.6
20200707205410 69 174 1.0 2.0 0.00 0.00 0.00 77 1017.6
20200707204848 69 173 0.0 1.0 0.00 0.00 0.00 76 1017.6
20200707204354 69 173 0.0 1.0 0.00 0.00 0.00 76 1017.6
20200707203851 70 172 0.0 1.0 0.00 0.00 0.00 75 1017.5
20200707203352 70 172 0.0 2.0 0.00 0.00 0.00 75 1017.5
20200707202847 70 174 1.0 2.0 0.00 0.00 0.00 74 1017.4
20200707202358 71 173 2.0 2.0 0.00 0.00 0.00 74 1017.3
20200707201903 71 174 1.0 2.0 0.00 0.00 0.00 73 1017.3
20200707201354 72 173 1.0 2.0 0.00 0.00 0.00 72 1017.2
20200707200848 72 170 1.0 2.0 0.00 0.00 0.00 70 1017.1
20200707200359 73 170 1.0 2.0 0.00 0.00 0.00 68 1017.0
20200707195853 73 170 0.0 1.0 0.00 0.00 0.00 68 1017.0
20200707195354 74 168 0.0 1.0 0.00 0.00 0.00 66 1016.9
20200707194901 74 170 1.0 1.0 0.00 0.00 0.00 65 1016.9
20200707194412 74 168 0.0 3.0 0.00 0.00 0.00 64 1016.9
20200707193856 75 170 1.0 4.0 0.00 0.00 0.00 64 1016.8
20200707193358 75 169 2.0 5.0 0.00 0.00 0.00 63 1016.8
20200707192858 75 168 1.0 5.0 0.00 0.00 0.00 62 1016.7
20200707192409 76 168 1.0 5.0 0.00 0.00 0.00 62 1016.7
20200707191904 76 168 1.0 5.0 0.00 0.00 0.00 61 1016.6
20200707191354 76 239 1.0 4.0 0.00 0.00 0.00 61 1016.4
20200707190857 77 240 2.0 4.0 0.00 0.00 0.00 60 1016.5
20200707190348 77 213 2.0 3.0 0.00 0.00 0.00 59 1016.4
20200707185858 77 214 1.0 4.0 0.00 0.00 0.00 58 1016.4
20200707185409 78 214 1.0 4.0 0.00 0.00 0.00 58 1016.3
20200707184857 78 211 1.0 7.0 0.00 0.00 0.00 56 1016.3
20200707184408 78 211 2.0 4.0 0.00 0.00 0.00 57 1016.2
20200707183846 78 212 2.0 6.0 0.00 0.00 0.00 56 1016.2
20200707183356 79 191 2.0 6.0 0.00 0.00 0.00 55 1016.3
20200707182850 79 223 3.0 6.0 0.00 0.00 0.00 55 1016.2
20200707182401 80 189 3.0 6.0 0.00 0.00 0.00 54 1016.2
20200707181858 80 229 3.0 7.0 0.00 0.00 0.00 55 1016.2
20200707181410 80 171 3.0 9.0 0.00 0.00 0.00 54 1016.1
20200707180857 80 185 4.0 9.0 0.00 0.00 0.00 54 1016.2
20200707180407 80 199 4.0 7.0 0.00 0.00 0.00 54 1016.1
20200707175903 81 201 4.0 9.0 0.00 0.00 0.00 54 1016.1
20200707175351 81 226 5.0 10.0 0.00 0.00 0.00 54 1016.1
20200707174847 81 176 2.0 10.0 0.00 0.00 0.00 55 1016.1
20200707174350 82 284 4.0 10.0 0.00 0.00 0.00 55 1016.1
20200707173849 81 218 3.0 10.0 0.00 0.00 0.00 56 1016.0
20200707173352 82 200 4.0 10.0 0.00 0.00 0.00 56 1016.1
20200707172858 82 182 4.0 10.0 0.00 0.00 0.00 56 1016.0
20200707172410 82 165 3.0 9.0 0.00 0.00 0.00 56 1016.0
20200707171845 82 272 5.0 9.0 0.00 0.00 0.00 57 1015.9
20200707171347 82 212 3.0 9.0 0.00 0.00 0.00 57 1016.0
20200707170852 83 237 4.0 9.0 0.00 0.00 0.00 57 1015.8
20200707170403 83 204 3.0 7.0 0.00 0.00 0.00 57 1015.9
20200707165900 83 229 4.0 7.0 0.00 0.00 0.00 57 1015.9
20200707165345 83 216 4.0 7.0 0.00 0.00 0.00 58 1015.8
20200707164855 83 152 3.0 9.0 0.00 0.00 0.00 57 1015.8
20200707164353 83 218 3.0 9.0 0.00 0.00 0.00 58 1015.8
20200707163859 83 224 2.0 9.0 0.00 0.00 0.00 58 1015.8
20200707163409 83 228 4.0 10.0 0.00 0.00 0.00 59 1015.7
20200707162858 83 208 5.0 10.0 0.00 0.00 0.00 60 1015.8
20200707162408 82 277 1.0 8.0 0.00 0.00 0.00 61 1015.7
20200707161846 83 105 4.0 8.0 0.00 0.00 0.00 60 1015.8
20200707161356 83 249 4.0 9.0 0.00 0.00 0.00 59 1015.9
20200707160849 83 228 3.0 10.0 0.00 0.00 0.00 61 1015.9
20200707160352 82 224 5.0 11.0 0.00 0.00 0.00 61 1016.0
20200707155846 82 205 3.0 8.0 0.00 0.00 0.00 61 1016.0
20200707155347 82 196 5.0 8.0 0.00 0.00 0.00 62 1016.0
20200707154845 82 159 3.0 9.0 0.00 0.00 0.00 62 1016.1
20200707154356 82 165 5.0 10.0 0.00 0.00 0.00 62 1016.0
20200707153850 82 186 4.0 10.0 0.00 0.00 0.00 62 1016.1
20200707153400 82 220 6.0 10.0 0.00 0.00 0.00 62 1016.1
20200707152846 83 172 3.0 11.0 0.00 0.00 0.00 62 1016.0
20200707152346 82 260 8.0 11.0 0.00 0.00 0.00 63 1015.9
20200707151845 82 189 3.0 9.0 0.00 0.00 0.00 63 1015.9
20200707151356 82 184 6.0 9.0 0.00 0.00 0.00 63 1015.9
20200707150859 82 177 4.0 14.0 0.00 0.00 0.00 62 1015.9
20200707150351 82 168 5.0 14.0 0.00 0.00 0.00 62 1016.0
20200707145853 82 183 4.0 10.0 0.00 0.00 0.00 63 1015.8
20200707145356 82 96 5.0 14.0 0.00 0.00 0.00 62 1015.9
20200707144855 82 125 9.0 14.0 0.00 0.00 0.00 61 1015.9
20200707144345 83 97 3.0 10.0 0.00 0.00 0.00 61 1016.0
20200707143903 83 121 5.0 11.0 0.00 0.00 0.00 60 1016.0
20200707143355 84 204 5.0 11.0 0.00 0.00 0.00 60 1016.1
20200707142900 83 223 4.0 11.0 0.00 0.00 0.00 62 1016.0
20200707142400 83 105 4.0 9.0 0.00 0.00 0.00 61 1016.0
20200707141857 83 123 4.0 12.0 0.00 0.00 0.00 61 1016.1
20200707141408 82 175 4.0 12.0 0.00 0.00 0.00 62 1015.9
20200707140857 82 154 5.0 9.0 0.00 0.00 0.00 61 1016.0
20200707140408 83 140 4.0 11.0 0.00 0.00 0.00 62 1016.0
20200707135846 83 116 7.0 13.0 0.00 0.00 0.00 61 1015.9
20200707135356 84 112 7.0 13.0 0.00 0.00 0.00 59 1015.9
20200707134849 84 235 7.0 12.0 0.00 0.00 0.00 59 1015.9
20200707134352 83 242 7.0 12.0 0.00 0.00 0.00 59 1016.1
20200707133849 83 220 5.0 12.0 0.00 0.00 0.00 60 1015.9
20200707133353 83 191 5.0 12.0 0.00 0.00 0.00 61 1016.0
20200707132900 83 238 6.0 11.0 0.00 0.00 0.00 59 1016.1
20200707132410 83 162 4.0 11.0 0.00 0.00 0.00 60 1015.9
20200707131848 84 193 5.0 12.0 0.00 0.00 0.00 60 1016.0
20200707131348 84 75 5.0 10.0 0.00 0.00 0.00 57 1015.9
20200707130855 84 140 4.0 9.0 0.00 0.00 0.00 57 1015.9
20200707130404 84 218 4.0 8.0 0.00 0.00 0.00 55 1015.9
20200707125858 83 176 4.0 9.0 0.00 0.00 0.00 51 1015.9
20200707125408 83 118 4.0 8.0 0.00 0.00 0.00 52 1015.8
20200707124903 83 128 4.0 9.0 0.00 0.00 0.00 51 1015.9
20200707124356 82 80 5.0 9.0 0.00 0.00 0.00 52 1015.9
20200707123850 83 104 4.0 8.0 0.00 0.00 0.00 51 1015.9
20200707123353 83 81 3.0 8.0 0.00 0.00 0.00 51 1016.0
20200707122851 83 185 5.0 7.0 0.00 0.00 0.00 51 1016.1
20200707122402 83 93 4.0 8.0 0.00 0.00 0.00 52 1016.0
20200707121900 83 109 3.0 6.0 0.00 0.00 0.00 51 1016.1
20200707121346 83 323 2.0 5.0 0.00 0.00 0.00 51 1016.1
20200707120858 82 99 1.0 6.0 0.00 0.00 0.00 51 1016.1
20200707120410 82 120 3.0 7.0 0.00 0.00 0.00 51 1016.2
20200707115857 82 122 4.0 12.0 0.00 0.00 0.00 53 1016.2
20200707115409 82 179 5.0 12.0 0.00 0.00 0.00 52 1016.3
20200707114907 82 97 6.0 11.0 0.00 0.00 0.00 54 1016.3
20200707114346 82 108 6.0 8.0 0.00 0.00 0.00 53 1016.3
20200707113853 81 87 2.0 6.0 0.00 0.00 0.00 54 1016.4
20200707113345 81 27 3.0 8.0 0.00 0.00 0.00 52 1016.5
20200707112857 82 103 4.0 8.0 0.00 0.00 0.00 51 1016.4
20200707112407 82 112 3.0 8.0 0.00 0.00 0.00 51 1016.5
20200707111853 82 312 2.0 7.0 0.00 0.00 0.00 52 1016.6
20200707111352 81 206 3.0 7.0 0.00 0.00 0.00 55 1016.6
20200707110855 80 220 3.0 10.0 0.00 0.00 0.00 56 1016.6